This is the latest recevied weather packets stored in our database for station/object OK1KKY-18. If no packets are shown the sender has not sent any weather packets the latest 10 day(s).
| Time | Temp. | Humidity | Pressure | Rain* | Wind** | Luminosity | Snow |
|---|---|---|---|---|---|---|---|
| 1778155566 | 15.56° C | 65% | 1012.2 hPa | - | - | - | - |
| 1778154966 | 15° C | 69% | 1012.3 hPa | - | - | - | - |
| 1778154366 | 14.44° C | 68% | 1012.2 hPa | - | - | - | - |
| 1778153766 | 14.44° C | 69% | 1012.2 hPa | - | - | - | - |
| 1778153166 | 14.44° C | 68% | 1012.2 hPa | - | - | - | - |
| 1778152566 | 14.44° C | 68% | 1012.1 hPa | - | - | - | - |
| 1778151966 | 13.89° C | 72% | 1012.2 hPa | - | - | - | - |
| 1778151366 | 13.89° C | 72% | 1011.9 hPa | - | - | - | - |
| 1778150766 | 13.33° C | 77% | 1012 hPa | - | - | - | - |
| 1778150166 | 13.33° C | 75% | 1012 hPa | - | - | - | - |
| 1778149566 | 12.78° C | 75% | 1011.8 hPa | - | - | - | - |
| 1778148966 | 12.78° C | 77% | 1012 hPa | - | - | - | - |
| 1778148366 | 13.33° C | 80% | 1012 hPa | - | - | - | - |
| 1778147766 | 13.33° C | 79% | 1012 hPa | - | - | - | - |
| 1778147166 | 12.78° C | 83% | 1011.9 hPa | - | - | - | - |
| 1778146566 | 11.67° C | 86% | 1011.8 hPa | - | - | - | - |
| 1778145966 | 11.67° C | 85% | 1011.8 hPa | - | - | - | - |
| 1778145366 | 11.67° C | 86% | 1011.6 hPa | - | - | - | - |
| 1778144766 | 11.67° C | 86% | 1011.4 hPa | - | - | - | - |
| 1778144166 | 11.67° C | 86% | 1011.3 hPa | - | - | - | - |
| 1778143566 | 11.67° C | 85% | 1011.3 hPa | - | - | - | - |
| 1778142966 | 11.67° C | 84% | 1011 hPa | - | - | - | - |
| 1778142366 | 11.67° C | 87% | 1011.1 hPa | - | - | - | - |
| 1778141766 | 11.67° C | 85% | 1011 hPa | - | - | - | - |
| 1778141166 | 11.67° C | 86% | 1011 hPa | - | - | - | - |
* Rain since midnight (hover to see other rain measurements)
** Current wind speed in m/s (hover to see current wind gust speed)